Weather History for Caribou, ME

Change the Weather History Date:

Monday, June 24, 2013

  Actual Average Record
Temperature  
Mean Temperature 71 °F 63 °F  
Max Temperature 82 °F 74 °F 93 °F (1995)
Min Temperature 60 °F 52 °F 40 °F (1959)
Degree Days  
Heating Degree Days 0 4  
Month to date heating degree days 143 146  
Since 1 June heating degree days 143 146  
Since 1 July heating degree days 8506 9335  
Cooling Degree Days 6 2  
Month to date cooling degree days 11 24  
Year to date cooling degree days 19 29  
Since 1 June cooling degree days 11 24  
Growing Degree Days 21 (Base 50)    
Moisture  
Dew Point 63 °F    
Average Humidity 77    
Maximum Humidity 100    
Minimum Humidity 54    
Precipitation  
Precipitation 0.01 in 0.12 in 1.21 in (2010)
Month to date precipitation 3.60 2.70  
Year to date precipitation 17.62 16.12  
Snow  
Snow 0.00 in 0.00 in 0.00 in (2002)
Month to date snowfall 0.0 0.0  
Since 1 June snowfall 0.0 0.0  
Since 1 July snowfall 106.9 108.7  
Snow Depth 0.00 in    
Sea Level Pressure  
Sea Level Pressure 29.82 in    
Wind  
Wind Speed 4 mph (WSW)    
Max Wind Speed 15 mph    
Max Gust Speed 21 mph    
Visibility 6 miles    
Events Fog , Rain    
T = Trace of Precipitation, MM = Missing Value Source: NWS Daily Summary

Daily Weather History Graph

Daily Weather History Graph

Search for Another Location

Airport:

Trip Planner

Search our weather history database for the weather conditions in past years. The results will help you decide how hot, cold, wet, or windy it might be!

Date:

Astronomy

Jun. 24, 2013 Rise Set
Actual Time 4:38 AM EDT 8:30 PM EDT
Civil Twilight 3:58 AM EDT 9:10 PM EDT
Nautical Twilight 3:04 AM EDT 10:04 PM EDT
Astronomical Twilight 1:43 AM EDT 11:24 PM EDT
Moon 9:20 PM EDT (6/24) 6:08 AM EDT (6/24)
Length of Visible Light 17h 11m
Length of Day
15h 52m
Full, 98% of the Moon is Illuminated
Jun 24
Full
Jun 30
Last Quarter
Jul 8
New
Jul 15
First Quarter
Jul 22
Full

Hourly Weather History & Observations

Time (EDT) Temp. Heat Index Dew Point Humidity Pressure Visibility Wind Dir Wind Speed Gust Speed Precip Events Conditions
12:54 AM 64.9 °F - 63.0 °F 93% 29.89 in 5.0 mi Calm Calm - N/A   Overcast
1:08 AM 64.4 °F - 62.6 °F 94% 29.88 in 5.0 mi Calm Calm - N/A   Overcast
1:18 AM 64.4 °F - 62.6 °F 94% 29.87 in 4.0 mi Calm Calm - N/A   Mostly Cloudy
1:40 AM 62.6 °F - 62.6 °F 100% 29.87 in 1.8 mi Calm Calm - N/A   Clear
1:43 AM 62.6 °F - 60.8 °F 94% 29.87 in 0.8 mi Calm Calm - N/A   Mist
1:54 AM 62.1 °F - 62.1 °F 100% 29.87 in 0.2 mi Calm Calm - N/A Fog Fog
2:20 AM 62.6 °F - 60.8 °F 94% 29.86 in 1.0 mi SW 4.6 mph - N/A   Mist
2:25 AM 62.6 °F - 60.8 °F 94% 29.86 in 0.8 mi SW 3.5 mph - N/A   Mist
2:54 AM 63.0 °F - 62.1 °F 97% 29.87 in 0.2 mi Calm Calm - N/A Fog Fog
3:54 AM 62.1 °F - 61.0 °F 96% 29.87 in 0.2 mi Calm Calm - N/A Fog Fog
4:54 AM 61.0 °F - 60.1 °F 97% 29.87 in 0.5 mi Calm Calm - N/A Fog Fog
5:33 AM 60.8 °F - 60.8 °F 100% 29.87 in 0.2 mi Calm Calm - 0.01 in Fog , Rain Light Rain
5:44 AM 62.6 °F - 60.8 °F 94% 29.86 in 0.8 mi South 3.5 mph - 0.01 in Rain Light Rain
5:54 AM 62.1 °F - 62.1 °F 100% 29.87 in 0.8 mi Calm Calm - 0.01 in   Mostly Cloudy
6:01 AM 62.6 °F - 62.6 °F 100% 29.86 in 1.0 mi Calm Calm - N/A   Mostly Cloudy
6:15 AM 62.6 °F - 62.6 °F 100% 29.86 in 1.8 mi South 3.5 mph - N/A   Mostly Cloudy
6:37 AM 64.4 °F - 64.4 °F 100% 29.86 in 2.0 mi South 3.5 mph - N/A   Partly Cloudy
6:49 AM 64.4 °F - 62.6 °F 94% 29.86 in 3.0 mi SSW 4.6 mph - N/A   Clear
6:54 AM 64.0 °F - 63.0 °F 96% 29.87 in 3.0 mi Calm Calm - N/A   Partly Cloudy
7:05 AM 64.4 °F - 64.4 °F 100% 29.85 in 3.0 mi Calm Calm - N/A   Partly Cloudy
7:54 AM 66.9 °F - 64.0 °F 90% 29.85 in 4.0 mi Calm Calm - N/A   Clear
8:04 AM 66.2 °F - 64.4 °F 94% 29.84 in 4.0 mi Calm Calm - N/A   Partly Cloudy
8:54 AM 70.0 °F - 64.9 °F 84% 29.86 in 6.0 mi WSW 5.8 mph - N/A   Haze
9:54 AM 75.0 °F - 66.0 °F 73% 29.85 in 10.0 mi West 5.8 mph - N/A   Clear
10:18 AM 75.2 °F - 64.4 °F 69% 29.84 in 10.0 mi West 4.6 mph - N/A   Mostly Cloudy
10:32 AM 75.2 °F - 62.6 °F 65% 29.83 in 10.0 mi Variable 5.8 mph - N/A   Scattered Clouds
10:54 AM 77.0 °F - 63.0 °F 62% 29.83 in 10.0 mi WNW 6.9 mph - N/A   Partly Cloudy
11:54 AM 79.0 °F - 63.0 °F 58% 29.81 in 10.0 mi Variable 5.8 mph - N/A   Scattered Clouds
12:54 PM 79.0 °F - 60.1 °F 52% 29.80 in 10.0 mi Calm Calm - N/A   Scattered Clouds
1:54 PM 78.1 °F - 62.1 °F 58% 29.78 in 10.0 mi WSW 9.2 mph - N/A   Mostly Cloudy
2:54 PM 82.0 °F 83.4 °F 64.0 °F 54% 29.77 in 10.0 mi WSW 12.7 mph 20.7 mph N/A   Mostly Cloudy
3:54 PM 80.1 °F 81.5 °F 63.0 °F 56% 29.75 in 10.0 mi West 10.4 mph 17.3 mph N/A   Overcast
4:54 PM 80.1 °F 81.2 °F 62.1 °F 54% 29.74 in 10.0 mi West 9.2 mph - N/A   Mostly Cloudy
5:54 PM 81.0 °F 82.5 °F 64.0 °F 56% 29.73 in 10.0 mi West 6.9 mph - N/A   Mostly Cloudy
6:54 PM 79.0 °F - 64.0 °F 60% 29.73 in 10.0 mi WSW 5.8 mph - N/A   Overcast
7:54 PM 75.9 °F - 64.0 °F 67% 29.73 in 10.0 mi WSW 6.9 mph - N/A   Clear
8:54 PM 73.9 °F - 64.0 °F 71% 29.74 in 10.0 mi Calm Calm - N/A   Clear
9:54 PM 72.0 °F - 64.0 °F 76% 29.74 in 10.0 mi WSW 3.5 mph - N/A   Clear
10:54 PM 70.0 °F - 66.0 °F 87% 29.74 in 10.0 mi West 5.8 mph - 0.00 in   Mostly Cloudy
11:54 PM 69.1 °F - 66.0 °F 90% 29.73 in 10.0 mi Calm Calm - N/A   Partly Cloudy